[Iaude] MPEC L12: 2024 KV1 [a=1.74,e=0.40,i=2.9,H=24.3]
    mpec at cfa.harvard.edu 
    mpec at cfa.harvard.edu
       
    Sat Jun  1 19:08:41 EDT 2024
    
    
  
M.P.E.C. 2024-L12                                  Issued 2024 June 1, 23:07 UT
     The Minor Planet Electronic Circulars contain information on unusual
         minor planets, routine data on comets and natural satellites,
         and occasional editorial announcements.  They are published
    on behalf of Division F of the International Astronomical Union by the
          Minor Planet Center, Smithsonian Astrophysical Observatory,
                          Cambridge, MA 02138, U.S.A.
			  
             Prepared using the Tamkin Foundation Computer Network
                              MPC at CFA.HARVARD.EDU
            URL https://www.minorplanetcenter.net/    ISSN 1523-6714
                                    2024 KV1                                    
Observations:
     K24K01V* C2024 05 31.39473813 49 31.630+17 37 31.78         20.90wXEL012F51
     K24K01V  C2024 05 31.42382813 49 45.991+17 35 23.75         20.65wXEL012F51
     K24K01V  C2024 05 31.43631013 49 52.197+17 34 28.57         20.84wXEL012F51
     K24K01V KC2024 05 31.98810413 54 47.789+16 53 33.36         20.5 GVEL012J95
     K24K01V KC2024 05 31.99653413 54 52.066+16 52 54.98         20.4 GVEL012J95
     K24K01V KC2024 06 01.00846513 54 58.116+16 52 02.78         20.6 GVEL012J95
     K24K01V mC2024 06 01.14860313 56 17.873+16 42 15.52         22.36GVEL012I52
     K24K01V mC2024 06 01.14906113 56 18.146+16 42 13.72         20.46GVEL012I52
     K24K01V mC2024 06 01.14952113 56 18.398+16 42 11.30         20.89GVEL012I52
     K24K01V mC2024 06 01.14998313 56 18.618+16 42 09.18         20.97GVEL012I52
     K24K01V !C2024 06 01.19252 13 56 40.48 +16 38 56.8          20.3 GVEL012673
     K24K01V !C2024 06 01.19523 13 56 41.77 +16 38 45.4                VEL012673
     K24K01V KB2024 06 01.94393814 03 20.59 +15 41 51.5          20.6 GXEL012I93
     K24K01V KB2024 06 01.94698914 03 22.15 +15 41 37.9          20.6 GXEL012I93
     K24K01V KB2024 06 01.94988614 03 23.65 +15 41 24.0          20.6 GXEL012I93
Observer details:
673 Table Mountain Observatory, Wrightwood.  Observer J. Pittichova.  1.0-m
    f/15 reflector + CCD.
F51 Pan-STARRS 1, Haleakala.  Observers J. Herman, T. Lowe, P. Minguez, A.
    Schultz, I. Smith.  Measurers K. Chambers, T. de Boer, J. Fairlamb, H.
    Gao, M. Huber, C.-C. Lin, E. Magnier, Y. Ramanjooloo, R. Wainscoat, R.
    Weryk.  1.8-m Ritchey-Chretien + CCD.
I52 Steward Observatory, Mt. Lemmon Station.  Observer K. W. Wierzchos.
    Measurers T. Beuden, V. F. Carvajal, D. Fay, J. B. Fazekas, D. C. Fuls, A.
    R. Gibbs, A. D. Grauer, H. Groeller, J. K. Hogan, R. A. Kowalski, S. M.
    Larson, G. J. Leonard, D. Rankin, R. L. Seaman, F. C. Shelly, K. W.
    Wierzchos.  1.0-m prime focus + CCD.
I93 St Pardon de Conques.  Observer F. Losse.  0.40-m f/3.7 reflector + CMO.
J95 Great Shefford.  Observer P. Birtwhistle.  0.41-m f/6.3 Schmidt-Cassegrain
    + CCD.
Orbital elements:
2024 KV1                                                 Earth MOID = 0.0588 AU
Epoch 2024 Mar. 31.0 TT = JDT 2460400.5                 MPC                     
M 339.92480              (2000.0)            P               Q                  
n   0.42892172     Peri.  119.94966     -0.62498992     +0.77919842             
a   1.7413418      Node   111.29245     -0.73257593     -0.56450505             
e   0.3964205      Incl.    2.90998     -0.26966666     -0.27236716             
P   2.30           H   24.35          G   0.15           U   8                  
Residuals in seconds of arc
240531 F51  0.2+  0.2+    240601 J95  1.1-  0.9+    240601 673  0.8+  0.6-
240531 F51  0.0   0.0     240601 I52  0.7-  0.1-    240601 673  0.0   0.1+
240531 F51  0.0   0.0     240601 I52  0.0   0.1+    240601 I93  0.1+  0.6+
240531 J95  0.0   0.1-    240601 I52  0.3+  0.3-    240601 I93  0.3+  1.2+
240531 J95  0.4-  0.6-    240601 I52  0.2+  0.4-    240601 I93  0.8+  0.8+
Ephemeris:
2024 KV1                 a,e,i = 1.74, 0.40, 3                   q = 1.0510
Date    TT    R. A. (2000) Decl.     Delta      r    Elong.  Phase     V
2024 05 02    10 58 26.9 +30 55 49   0.1372  1.0626   110.0    63.0    22.4
...
2024 05 17    12 01 34.2 +28 28 11   0.1048  1.0510   109.6    65.0    21.9
...
2024 05 25    12 56 03.3 +23 57 07   0.09046 1.0546   115.3    60.3    21.4
...
2024 05 31    13 46 05.5 +18 05 41   0.08352 1.0616   123.0    53.2    21.0
2024 06 01    13 54 56.4 +16 53 48   0.08282 1.0632   124.5    51.8    21.0
2024 06 02    14 03 52.0 +15 38 28   0.08229 1.0648   126.2    50.3    20.9
...
2024 06 08    14 57 29.8 +07 14 47   0.08266 1.0766   136.7    40.3    20.7
...
2024 06 16    16 01 55.2 -03 57 24   0.09344 1.0975   149.7    27.8    20.6
...
2024 07 01    17 24 11.4 -17 23 54   0.1404  1.1505   161.2    16.5    21.3
A. U. Tomatic                (C) Copyright 2024 MPC           M.P.E.C. 2024-L12
    
    
More information about the Iaude
mailing list